This is the latest recevied weather packets stored in our database for station/object N0ZRD-10. If no packets are shown the sender has not sent any weather packets the latest 10 day(s).
| Time | Temp. | Humidity | Pressure | Rain* | Wind** | Luminosity | Snow |
|---|---|---|---|---|---|---|---|
| 1777798310 | 5.56° C | 75% | - | 0 mm | - | - | - |
| 1777797707 | 6.11° C | 74% | - | 0 mm | - | - | - |
| 1777797106 | 6.67° C | 74% | - | 0 mm | - | - | - |
| 1777796505 | 7.22° C | 73% | - | 0 mm | - | - | - |
| 1777795904 | 6.67° C | 73% | - | 0 mm | - | - | - |
| 1777795305 | 7.22° C | 73% | - | 0 mm | - | - | - |
| 1777794702 | 7.22° C | 70% | - | 0 mm | - | - | - |
| 1777794101 | 7.22° C | 69% | - | 0 mm | - | - | - |
| 1777793500 | 7.78° C | 70% | - | 0 mm | - | - | - |
| 1777792900 | 7.78° C | 69% | - | 0 mm | - | - | - |
| 1777792298 | 7.78° C | 69% | - | 0 mm | - | - | - |
| 1777791697 | 8.33° C | 68% | - | 0 mm | - | - | - |
| 1777791098 | 8.33° C | 68% | - | 0 mm | - | - | - |
| 1777790496 | 8.89° C | 67% | - | 0 mm | - | - | - |
| 1777789894 | 8.89° C | 67% | - | 0 mm | - | - | - |
| 1777788692 | 8.89° C | 69% | - | 0 mm | - | - | - |
| 1777788093 | 9.44° C | 68% | - | 0 mm | - | - | - |
| 1777786290 | 10° C | 67% | - | 0 mm | - | - | - |
| 1777785687 | 10° C | 66% | - | 0 mm | - | - | - |
| 1777785087 | 10° C | 66% | - | 0 mm | - | - | - |
| 1777782679 | 10.56° C | 63% | - | 0 mm | - | - | - |
| 1777782079 | 10.56° C | 68% | - | 0 mm | - | - | - |
| 1777781477 | 10.56° C | 66% | - | 0 mm | - | - | - |
| 1777780878 | 10.56° C | 65% | - | 0 mm | - | - | - |
| 1777780275 | 10.56° C | 64% | - | 0 mm | - | - | - |
* Rain latest hour (hover to see other rain measurements)
** Current wind speed in m/s (hover to see current wind gust speed)